FW4335 Weather Reports


Display with metric or nautical units.
time (UTC)temp
F
wind
direction
speed
MPH
gust
MPH
rain 1hr
in
rain 24hr
in
rain mn
in
humidity
%
barometer
mb
20260906180044 55 67 0.0 0.0 0.00 0.18 0.16 98 1020.3
20260906174541 54 67 0.0 0.0 0.01 0.18 0.16 98 1020.3
20260906173039 54 66 0.0 0.0 0.01 0.18 0.16 98 1020.2
20260906171543 54 22 0.0 0.0 0.01 0.18 0.16 99 1020.2
20260906170043 54 16 0.0 2.0 0.01 0.18 0.15 99 1020.2
20260906164541 54 20 0.0 2.0 0.00 0.17 0.15 99 1020.1
20260906160038 55 67 0.0 0.0 0.03 0.17 0.15 99 1020.0
20260906154541 54 67 0.0 0.0 0.04 0.17 0.15 99 1020.0
20260906153044 54 67 0.0 0.0 0.05 0.17 0.13 99 1019.9
20260906150043 54 67 0.0 0.0 0.04 0.14 0.11 99 1019.5
20260906144542 53 67 0.0 0.0 0.04 0.13 0.10 99 1019.3
20260906143043 53 67 0.0 0.0 0.04 0.12 0.09 98 1019.1
20260906140118 53 360 0.0 0.0 0.02 0.10 0.07 98 1018.8
20260906134537 53 360 0.0 0.0 0.01 0.09 0.06 98 1018.6
20260906133051 53 360 0.0 0.0 0.00 0.08 0.06 98 1018.4
20260906131540 53 360 0.0 0.0 0.00 0.08 0.06 98 1018.4
20260906130042 53 360 0.0 0.0 0.00 0.08 0.06 98 1018.4
20260906124539 53 360 0.0 0.0 0.00 0.08 0.06 98 1018.5
20260906121541 53 360 0.0 0.0 0.01 0.08 0.06 98 1018.6
20260906120043 53 360 0.0 0.0 0.01 0.08 0.06 98 1018.8
20260906114622 53 343 0.0 0.0 0.01 0.08 0.06 98 1018.8
20260906113044 53 174 0.0 0.0 0.01 0.08 0.05 98 1018.8
20260906111702 53 112 0.0 1.0 0.00 0.07 0.05 98 1018.9
20260906110042 53 56 0.0 1.0 0.00 0.07 0.05 98 1018.9
20260906104539 53 45 0.0 0.0 0.02 0.07 0.05 98 1019.1
20260906101542 53 57 0.0 3.0 0.04 0.07 0.05 97 1019.2
20260906100039 53 25 0.0 1.0 0.04 0.07 0.03 97 1019.1
20260906094542 53 247 0.0 0.0 0.03 0.05 0.02 97 1019.2
20260906093042 53 247 0.0 0.0 0.02 0.04 0.01 97 1019.1
20260906090118 53 225 0.0 0.0 0.01 0.03 0.00 97 1019.0
20260906084620 52 225 0.0 0.0 0.00 0.02 0.00 97 1019.1
20260906083041 52 225 0.0 0.0 0.00 0.02 0.00 97 1019.1
20260906081543 52 225 0.0 0.0 0.00 0.02 0.00 96 1019.1
20260906080040 52 225 0.0 1.0 0.00 0.02 0.00 96 1019.0
20260906073041 51 188 0.0 1.0 0.00 0.02 0.00 96 1019.1
20260906071541 51 202 0.0 0.0 0.00 0.02 0.00 96 1019.2
20260906070040 51 202 0.0 1.0 0.00 0.02 0.00 96 1019.3
20260906064542 51 202 0.0 0.0 0.00 0.02 0.02 95 1019.3
20260906063118 51 202 0.0 0.0 0.00 0.02 0.02 95 1019.5
20260906061541 51 202 0.0 1.0 0.00 0.02 0.02 95 1019.4
20260906060043 52 144 0.0 1.0 0.00 0.03 0.02 94 1019.5
20260906054542 52 162 0.0 1.0 0.00 0.03 0.02 94 1019.6
20260906053044 52 247 0.0 1.0 0.00 0.03 0.02 94 1019.6
20260906050040 53 247 0.0 0.0 0.00 0.03 0.02 93 1019.6
20260906044540 53 247 0.0 0.0 0.00 0.03 0.02 93 1019.7
20260906043042 53 247 0.0 0.0 0.00 0.03 0.02 92 1019.6
20260906041540 53 247 0.0 0.0 0.00 0.03 0.02 90 1019.6
20260906040042 54 247 0.0 0.0 0.00 0.03 0.02 89 1019.5
20260906034542 55 238 0.0 2.0 0.00 0.03 0.02 88 1019.3
20260906033117 56 202 0.0 0.0 0.00 0.03 0.02 87 1019.1
20260906031541 56 203 0.0 2.0 0.00 0.03 0.02 85 1019.0
20260906030118 57 222 0.0 1.0 0.00 0.03 0.02 83 1018.9
20260906024617 59 202 0.0 0.0 0.00 0.03 0.02 80 1018.9
20260906023038 61 157 0.0 3.0 0.00 0.03 0.02 78 1018.8
20260906021542 62 159 0.0 3.0 0.00 0.03 0.02 76 1018.9
20260906020041 64 196 0.0 2.0 0.00 0.03 0.02 74 1018.8
20260906014542 65 182 0.0 2.0 0.00 0.03 0.02 70 1018.7
20260906013039 66 206 0.0 2.0 0.00 0.03 0.02 68 1018.7
20260906011543 67 160 1.0 3.0 0.00 0.03 0.02 69 1018.8
20260906004544 67 165 1.0 4.0 0.00 0.03 0.02 70 1019.0
20260906003041 66 208 3.0 7.0 0.00 0.03 0.02 78 1019.2
20260906001542 63 163 1.0 6.0 0.00 0.03 0.02 83 1019.4
20260906000042 62 146 1.0 6.0 0.02 0.03 0.02 83 1019.4
20260905234542 62 153 2.0 6.0 0.02 0.03 0.02 81 1019.4
20260905233039 63 161 0.0 4.0 0.02 0.03 0.02 77 1019.3
20260905231617 66 149 1.0 10.0 0.02 0.03 0.00 68 1019.2
20260905230159 66 239 0.0 3.0 0.00 0.01 0.00 67 1019.1
20260905224542 67 263 0.0 1.0 0.00 0.01 0.00 67 1019.0
20260905223039 68 292 0.0 1.0 0.00 0.01 0.00 66 1019.0
20260905221544 69 335 0.0 1.0 0.00 0.01 0.00 62 1019.0
20260905220041 70 359 0.0 3.0 0.00 0.01 0.00 59 1019.0
20260905214543 69 349 0.0 0.0 0.00 0.01 0.00 62 1019.1
20260905213040 69 236 0.0 2.0 0.00 0.01 0.00 61 1019.2
20260905211541 69 150 0.0 3.0 0.00 0.01 0.00 59 1019.4
20260905210041 69 190 1.0 3.0 0.00 0.01 0.00 60 1019.5
20260905204542 69 210 0.0 4.0 0.00 0.01 0.00 61 1019.6
20260905203040 69 267 0.0 3.0 0.00 0.01 0.00 60 1019.6
20260905201543 70 248 0.0 3.0 0.00 0.01 0.00 62 1019.6
20260905200041 67 41 0.0 4.0 0.00 0.01 0.00 65 1019.8
20260905193040 69 246 0.0 3.0 0.00 0.01 0.00 62 1020.0
20260905191541 70 343 0.0 3.0 0.00 0.01 0.00 66 1020.2
20260905190044 67 292 0.0 1.0 0.00 0.01 0.00 70 1020.4
20260905184543 66 35 0.0 3.0 0.00 0.01 0.00 74 1020.7
20260905181543 63 222 0.0 3.0 0.00 0.01 0.00 85 1021.1